| time (UTC) | temp F | wind direction | speed knots | gust knots | rain 1hr in | rain 24hr in | rain mn in | humidity % | barometer mb |
| 20260504195004 | 67 | 209 | 4.3 | 10.4 | 0.00 | 0.00 | 0.00 | 48 | 1010.1 |
| 20260504194505 | 67 | 224 | 4.3 | 10.4 | 0.00 | 0.00 | 0.00 | 47 | 1010.2 |
| 20260504194005 | 67 | 229 | 5.2 | 12.2 | 0.00 | 0.00 | 0.00 | 46 | 1010.2 |
| 20260504193504 | 67 | 214 | 4.3 | 13.0 | 0.00 | 0.00 | 0.00 | 45 | 1010.2 |
| 20260504193005 | 67 | 213 | 3.5 | 10.4 | 0.00 | 0.00 | 0.00 | 47 | 1010.2 |
| 20260504192504 | 67 | 211 | 5.2 | 12.2 | 0.00 | 0.00 | 0.00 | 49 | 1010.3 |
| 20260504192004 | 67 | 230 | 5.2 | 10.4 | 0.00 | 0.00 | 0.00 | 47 | 1010.2 |
| 20260504191505 | 67 | 227 | 4.3 | 10.4 | 0.00 | 0.00 | 0.00 | 49 | 1010.2 |
| 20260504191006 | 66 | 211 | 5.2 | 15.6 | 0.00 | 0.00 | 0.00 | 46 | 1010.3 |
| 20260504190505 | 67 | 215 | 4.3 | 11.3 | 0.00 | 0.00 | 0.00 | 45 | 1010.3 |
| 20260504190005 | 67 | 218 | 4.3 | 12.2 | 0.00 | 0.00 | 0.00 | 47 | 1010.4 |
| 20260504185506 | 67 | 222 | 4.3 | 10.4 | 0.00 | 0.00 | 0.00 | 45 | 1010.3 |
| 20260504185005 | 67 | 220 | 2.6 | 6.1 | 0.00 | 0.00 | 0.00 | 46 | 1010.4 |
| 20260504184504 | 66 | 230 | 4.3 | 12.2 | 0.00 | 0.00 | 0.00 | 47 | 1010.4 |
| 20260504184005 | 67 | 222 | 4.3 | 13.0 | 0.00 | 0.00 | 0.00 | 47 | 1010.5 |
| 20260504183505 | 66 | 245 | 6.1 | 13.0 | 0.00 | 0.00 | 0.00 | 44 | 1010.6 |
| 20260504182505 | 67 | 219 | 4.3 | 12.2 | 0.00 | 0.00 | 0.00 | 44 | 1010.7 |
| 20260504182005 | 67 | 227 | 2.6 | 13.0 | 0.00 | 0.00 | 0.00 | 49 | 1010.7 |
| 20260504181506 | 67 | 220 | 2.6 | 10.4 | 0.00 | 0.00 | 0.00 | 44 | 1010.8 |
| 20260504181004 | 67 | 234 | 4.3 | 8.7 | 0.00 | 0.00 | 0.00 | 44 | 1010.8 |
| 20260504180505 | 67 | 217 | 2.6 | 7.0 | 0.00 | 0.00 | 0.00 | 43 | 1010.9 |
| 20260504180005 | 67 | 226 | 6.1 | 14.8 | 0.00 | 0.00 | 0.00 | 40 | 1010.9 |
| 20260504175505 | 67 | 232 | 6.1 | 12.2 | 0.00 | 0.00 | 0.00 | 40 | 1011.0 |
| 20260504174505 | 67 | 239 | 5.2 | 11.3 | 0.00 | 0.00 | 0.00 | 40 | 1011.0 |
| 20260504174005 | 68 | 212 | 5.2 | 11.3 | 0.00 | 0.00 | 0.00 | 42 | 1011.2 |
| 20260504172504 | 67 | 231 | 6.1 | 18.2 | 0.00 | 0.00 | 0.00 | 40 | 1011.2 |
| 20260504172005 | 66 | 237 | 5.2 | 12.2 | 0.00 | 0.00 | 0.00 | 41 | 1011.1 |
| 20260504171504 | 66 | 238 | 7.8 | 14.8 | 0.00 | 0.00 | 0.00 | 38 | 1011.2 |
| 20260504171005 | 65 | 211 | 7.8 | 13.9 | 0.00 | 0.00 | 0.00 | 38 | 1011.2 |
| 20260504170505 | 66 | 232 | 7.8 | 17.4 | 0.00 | 0.00 | 0.00 | 38 | 1011.2 |
| 20260504151005 | 61 | 251 | 4.3 | 17.4 | 0.00 | 0.00 | 0.00 | 46 | 1012.5 |
| 20260504150505 | 61 | 255 | 4.3 | 17.4 | 0.00 | 0.00 | 0.00 | 45 | 1012.6 |
| 20260504141004 | 59 | 243 | 6.1 | 13.0 | 0.00 | 0.00 | 0.00 | 46 | 1013.0 |
| 20260504140504 | 59 | 223 | 4.3 | 13.0 | 0.00 | 0.00 | 0.00 | 48 | 1013.1 |
| 20260504130505 | 56 | 215 | 4.3 | 10.4 | 0.00 | 0.00 | 0.00 | 55 | 1013.5 |
| 20260504110505 | 42 | 262 | 0.9 | 2.6 | 0.00 | 0.00 | 0.00 | 87 | 1013.4 |
| 20260504100504 | 37 | 55 | 0.0 | 0.9 | 0.00 | 0.00 | 0.00 | 89 | 1013.2 |
| 20260504082004 | 37 | 55 | 0.0 | 0.9 | 0.00 | 0.00 | 0.00 | 87 | 1012.6 |
| 20260504081505 | 37 | 55 | 0.0 | 0.9 | 0.00 | 0.00 | 0.00 | 87 | 1012.6 |
| 20260504081004 | 37 | 55 | 0.0 | 0.9 | 0.00 | 0.00 | 0.00 | 87 | 1012.6 |
| 20260504080504 | 37 | 55 | 0.0 | 0.9 | 0.00 | 0.00 | 0.00 | 86 | 1012.6 |
| 20260504050504 | 39 | 61 | 0.9 | 0.9 | 0.00 | 0.00 | 0.00 | 82 | 1012.1 |
| 20260504045504 | 39 | 61 | 0.9 | 0.9 | 0.00 | 0.00 | 0.00 | 80 | 1012.1 |
| 20260504044505 | 39 | 61 | 0.9 | 1.7 | 0.00 | 0.00 | 0.00 | 78 | 1012.2 |
| 20260504044004 | 39 | 61 | 0.0 | 0.9 | 0.00 | 0.00 | 0.00 | 77 | 1012.2 |
| 20260504043504 | 39 | 61 | 0.0 | 0.0 | 0.00 | 0.00 | 0.00 | 78 | 1012.2 |
| 20260504043004 | 39 | 61 | 0.0 | 0.9 | 0.00 | 0.00 | 0.00 | 77 | 1012.1 |
| 20260504042504 | 39 | 61 | 0.0 | 0.0 | 0.00 | 0.00 | 0.00 | 78 | 1012.2 |
| 20260504042004 | 39 | 61 | 0.0 | 0.0 | 0.00 | 0.00 | 0.00 | 78 | 1012.0 |
| 20260504041504 | 39 | 61 | 0.0 | 0.9 | 0.00 | 0.00 | 0.00 | 77 | 1012.0 |
| 20260504041004 | 40 | 61 | 0.0 | 0.9 | 0.00 | 0.00 | 0.00 | 77 | 1011.9 |
| 20260504040505 | 40 | 61 | 0.0 | 0.9 | 0.00 | 0.00 | 0.00 | 77 | 1012.0 |
| 20260504040004 | 40 | 61 | 0.0 | 0.0 | 0.00 | 0.00 | 0.00 | 77 | 1012.0 |
| 20260504035504 | 40 | 61 | 0.0 | 0.0 | 0.00 | 0.00 | 0.00 | 76 | 1012.0 |
| 20260504035004 | 40 | 61 | 0.0 | 0.9 | 0.00 | 0.00 | 0.00 | 75 | 1011.9 |
| 20260504034005 | 40 | 61 | 0.0 | 0.9 | 0.00 | 0.00 | 0.00 | 75 | 1011.8 |
| 20260504033504 | 40 | 61 | 0.0 | 0.9 | 0.00 | 0.00 | 0.00 | 75 | 1011.8 |
| 20260504033005 | 41 | 61 | 0.0 | 0.9 | 0.00 | 0.00 | 0.00 | 74 | 1011.8 |
| 20260504032505 | 41 | 61 | 0.0 | 0.9 | 0.00 | 0.00 | 0.00 | 73 | 1011.8 |
| 20260504032004 | 41 | 61 | 0.0 | 0.9 | 0.00 | 0.00 | 0.00 | 72 | 1011.8 |
| 20260504031504 | 41 | 61 | 0.0 | 0.9 | 0.00 | 0.00 | 0.00 | 72 | 1011.9 |
| 20260504030504 | 41 | 24 | 0.9 | 1.7 | 0.00 | 0.00 | 0.00 | 72 | 1011.8 |
| 20260504030004 | 41 | 0 | 0.0 | 0.9 | 0.00 | 0.00 | 0.00 | 73 | 1011.8 |
| 20260504025505 | 41 | 0 | 0.0 | 0.9 | 0.00 | 0.00 | 0.00 | 73 | 1011.7 |
| 20260504025005 | 42 | 0 | 0.0 | 1.7 | 0.00 | 0.00 | 0.00 | 74 | 1011.8 |
| 20260504024504 | 42 | 293 | 0.0 | 0.9 | 0.00 | 0.00 | 0.00 | 73 | 1011.8 |
| 20260504023504 | 42 | 293 | 0.0 | 0.9 | 0.00 | 0.00 | 0.00 | 70 | 1011.9 |
| 20260504023004 | 43 | 293 | 0.0 | 0.9 | 0.00 | 0.00 | 0.00 | 69 | 1011.9 |
| 20260504022504 | 43 | 293 | 0.0 | 0.9 | 0.00 | 0.00 | 0.00 | 68 | 1011.8 |
| 20260504022004 | 43 | 293 | 0.0 | 0.9 | 0.00 | 0.00 | 0.00 | 70 | 1011.8 |
| 20260504021505 | 43 | 293 | 0.0 | 0.9 | 0.00 | 0.00 | 0.00 | 69 | 1011.9 |
| 20260504021004 | 43 | 293 | 0.0 | 0.0 | 0.00 | 0.00 | 0.00 | 70 | 1011.8 |
| 20260504020005 | 43 | 293 | 0.0 | 0.9 | 0.00 | 0.00 | 0.00 | 69 | 1011.7 |
| 20260504015504 | 44 | 293 | 0.0 | 0.9 | 0.00 | 0.00 | 0.00 | 68 | 1011.7 |
| 20260504015004 | 44 | 293 | 0.0 | 0.9 | 0.00 | 0.00 | 0.00 | 68 | 1011.7 |
| 20260504014504 | 44 | 293 | 0.0 | 0.9 | 0.00 | 0.00 | 0.00 | 66 | 1011.6 |
| 20260504014004 | 44 | 293 | 0.0 | 0.9 | 0.00 | 0.00 | 0.00 | 66 | 1011.6 |
| 20260504013504 | 45 | 293 | 0.0 | 0.9 | 0.00 | 0.00 | 0.00 | 66 | 1011.6 |
| 20260504013004 | 45 | 293 | 0.0 | 0.9 | 0.00 | 0.00 | 0.00 | 65 | 1011.5 |
| 20260504012504 | 45 | 293 | 0.0 | 0.0 | 0.00 | 0.00 | 0.00 | 65 | 1011.5 |
| 20260504010504 | 46 | 293 | 0.0 | 0.9 | 0.00 | 0.00 | 0.00 | 59 | 1011.2 |
| 20260504010004 | 46 | 293 | 0.0 | 0.9 | 0.00 | 0.00 | 0.00 | 59 | 1011.1 |
| 20260504005504 | 46 | 293 | 0.0 | 0.0 | 0.00 | 0.00 | 0.00 | 58 | 1011.1 |
| 20260504005005 | 47 | 293 | 0.0 | 0.9 | 0.00 | 0.00 | 0.00 | 55 | 1011.0 |
| 20260504004504 | 47 | 293 | 0.0 | 0.9 | 0.00 | 0.00 | 0.00 | 55 | 1011.0 |
| 20260504004004 | 47 | 293 | 0.0 | 0.0 | 0.00 | 0.00 | 0.00 | 53 | 1010.9 |
| 20260504003505 | 47 | 293 | 0.0 | 0.0 | 0.00 | 0.00 | 0.00 | 53 | 1010.8 |
| 20260504003004 | 48 | 293 | 0.0 | 0.9 | 0.00 | 0.00 | 0.00 | 50 | 1010.8 |
| 20260504002504 | 48 | 293 | 0.0 | 0.9 | 0.00 | 0.00 | 0.00 | 48 | 1010.7 |
| 20260504002004 | 48 | 293 | 0.0 | 0.9 | 0.00 | 0.00 | 0.00 | 47 | 1010.7 |
| 20260504001504 | 48 | 293 | 0.0 | 0.9 | 0.00 | 0.00 | 0.00 | 49 | 1010.6 |
| 20260504001004 | 49 | 293 | 0.0 | 0.9 | 0.00 | 0.00 | 0.00 | 46 | 1010.4 |
| 20260504000504 | 49 | 293 | 0.0 | 0.9 | 0.00 | 0.00 | 0.00 | 45 | 1010.4 |
| 20260504000004 | 50 | 293 | 0.0 | 0.9 | 0.00 | 0.00 | 0.00 | 46 | 1010.4 |
| 20260503235504 | 50 | 293 | 0.0 | 0.9 | 0.00 | 0.00 | 0.00 | 44 | 1010.2 |
| 20260503235004 | 51 | 293 | 0.0 | 0.9 | 0.00 | 0.00 | 0.00 | 42 | 1010.2 |
| 20260503234504 | 52 | 293 | 0.0 | 1.7 | 0.00 | 0.00 | 0.00 | 44 | 1010.2 |
| 20260503234005 | 53 | 293 | 0.0 | 1.7 | 0.00 | 0.00 | 0.00 | 43 | 1010.2 |
| 20260503233504 | 54 | 274 | 0.9 | 2.6 | 0.00 | 0.00 | 0.00 | 37 | 1010.1 |
| 20260503233004 | 54 | 342 | 0.9 | 2.6 | 0.00 | 0.00 | 0.00 | 36 | 1010.0 |
| 20260503232505 | 54 | 351 | 0.0 | 6.1 | 0.00 | 0.00 | 0.00 | 36 | 1010.0 |
| 20260503232004 | 54 | 307 | 1.7 | 6.1 | 0.00 | 0.00 | 0.00 | 36 | 1010.0 |
| 20260503231504 | 54 | 315 | 0.9 | 2.6 | 0.00 | 0.00 | 0.00 | 36 | 1010.0 |
| 20260503231004 | 55 | 258 | 0.9 | 5.2 | 0.00 | 0.00 | 0.00 | 37 | 1009.9 |
| 20260503230504 | 55 | 260 | 2.6 | 7.0 | 0.00 | 0.00 | 0.00 | 35 | 1009.9 |
| 20260503230004 | 55 | 247 | 2.6 | 5.2 | 0.00 | 0.00 | 0.00 | 33 | 1009.9 |
| 20260503225504 | 55 | 280 | 1.7 | 5.2 | 0.00 | 0.00 | 0.00 | 35 | 1009.9 |
| 20260503225004 | 55 | 281 | 0.9 | 6.1 | 0.00 | 0.00 | 0.00 | 34 | 1009.9 |
| 20260503224504 | 55 | 314 | 2.6 | 7.0 | 0.00 | 0.00 | 0.00 | 37 | 1009.9 |
| 20260503224004 | 55 | 320 | 2.6 | 7.8 | 0.00 | 0.00 | 0.00 | 33 | 1009.9 |
| 20260503223504 | 55 | 335 | 2.6 | 8.7 | 0.00 | 0.00 | 0.00 | 33 | 1009.8 |
| 20260503223005 | 55 | 340 | 2.6 | 8.7 | 0.00 | 0.00 | 0.00 | 35 | 1009.7 |
| 20260503222504 | 56 | 316 | 1.7 | 8.7 | 0.00 | 0.00 | 0.00 | 34 | 1009.6 |
| 20260503222004 | 56 | 328 | 2.6 | 7.8 | 0.00 | 0.00 | 0.00 | 34 | 1009.6 |
| 20260503221504 | 56 | 349 | 2.6 | 13.0 | 0.00 | 0.00 | 0.00 | 34 | 1009.6 |
| 20260503221004 | 56 | 9 | 3.5 | 13.0 | 0.00 | 0.00 | 0.00 | 34 | 1009.6 |
| 20260503220505 | 56 | 3 | 4.3 | 8.7 | 0.00 | 0.00 | 0.00 | 34 | 1009.7 |
| 20260503215504 | 56 | 288 | 3.5 | 10.4 | 0.00 | 0.00 | 0.00 | 35 | 1009.6 |
| 20260503215004 | 56 | 226 | 4.3 | 13.9 | 0.00 | 0.00 | 0.00 | 34 | 1009.6 |
| 20260503214504 | 56 | 274 | 6.1 | 12.2 | 0.00 | 0.00 | 0.00 | 33 | 1009.7 |
| 20260503213504 | 56 | 0 | 2.6 | 13.9 | 0.00 | 0.00 | 0.00 | 37 | 1009.6 |
| 20260503212004 | 56 | 347 | 6.1 | 15.6 | 0.00 | 0.00 | 0.00 | 35 | 1009.5 |
| 20260503211504 | 56 | 302 | 4.3 | 13.0 | 0.00 | 0.00 | 0.00 | 35 | 1009.6 |
| 20260503211005 | 56 | 354 | 7.8 | 15.6 | 0.00 | 0.00 | 0.00 | 35 | 1009.6 |
| 20260503210504 | 56 | 2 | 5.2 | 15.6 | 0.00 | 0.00 | 0.00 | 34 | 1009.5 |
| 20260503210004 | 56 | 0 | 2.6 | 7.8 | 0.00 | 0.00 | 0.00 | 38 | 1009.5 |
| 20260503205004 | 57 | 337 | 2.6 | 10.4 | 0.00 | 0.00 | 0.00 | 35 | 1009.4 |
| 20260503204504 | 57 | 28 | 5.2 | 13.0 | 0.00 | 0.00 | 0.00 | 36 | 1009.5 |
| 20260503204004 | 57 | 34 | 5.2 | 18.2 | 0.00 | 0.00 | 0.00 | 36 | 1009.4 |
| 20260503203504 | 56 | 30 | 4.3 | 14.8 | 0.00 | 0.00 | 0.00 | 36 | 1009.3 |
| 20260503203004 | 56 | 262 | 5.2 | 13.0 | 0.00 | 0.00 | 0.00 | 34 | 1009.4 |
| 20260503202004 | 56 | 285 | 5.2 | 13.0 | 0.00 | 0.00 | 0.00 | 36 | 1009.4 |
| 20260503201504 | 56 | 275 | 3.5 | 11.3 | 0.00 | 0.00 | 0.00 | 38 | 1009.4 |
| 20260503201004 | 57 | 281 | 5.2 | 11.3 | 0.00 | 0.00 | 0.00 | 35 | 1009.4 |
| 20260503200504 | 57 | 348 | 5.2 | 13.9 | 0.00 | 0.00 | 0.00 | 36 | 1009.3 |
| 20260503195504 | 57 | 342 | 4.3 | 10.4 | 0.00 | 0.00 | 0.00 | 34 | 1009.4 |